Location: Kunchanapalle
(16.4623°N, 80.6176°E)
Time: 13:29:02
(UTC+00:00)

Cosmos 1812 Rocket - Pass Details

Date: 13 August 2020
Orbit: 606 x 631 km, 82.5° (Epoch: 24 September)

Event Time Altitude Azimuth Distance (km) Brightness Sun altitude
Exits shadow 22:50:23 26° 176° (S) 1,205 4.8 -21.5°
Maximum altitude 22:52:46 76° 93° (E) 626 3.6 -20.9°
Drops below altitude 10° 22:57:05 10° 9° (N) 1,952 6.5 -20.0°
Sets 22:59:18 0° 7° (N) 2,858 7.4 -19.5°
